Location: Calvera
(42.3882°N, 0.6137°E)
Time: 14:51:05
(UTC+00:00)

CZ-3 R/B - Pass Details

Date: 28 October 2020
Orbit: 373 x 10236 km, 28.4° (Epoch: 25 November)

Event Time Altitude Azimuth Distance (km) Brightness Sun altitude
Exits shadow 04:35:33 18° 247° (WSW) 7,704 5.5 -21.0°
Maximum altitude 04:52:54 43° 192° (SSW) 2,951 3.8 -17.8°
Drops below altitude 10° 05:00:28 10° 122° (ESE) 3,106 5.1 -16.4°
Sets 05:02:22 0° 114° (ESE) 3,632 5.9 -16.0°
